Location: ????????
(38.4362°N, 22.8767°E)
Time: 16:50:30
(UTC+00:00)

ACS3 Solar Sail - Pass Details

Date: 01 July 2024
Orbit: 993 x 1023 km, 97.4° (Epoch: 21 July)

Event Time Altitude Azimuth Distance (km) Brightness Sun altitude
Exits shadow 21:12:48 14° 232° (SW) 2,459 6.7 -25.8°
Maximum altitude 21:16:04 21° 269° (W) 2,081 6.7 -26.0°
Drops below altitude 10° 21:20:35 10° 316° (NW) 2,762 8.0 -26.3°
Sets 21:23:47 0° 333° (NNW) 3,716 9.1 -26.5°
